カタログに戻る

CZ-6A DEB

運用中PO
NORAD 61810·DEBRIS·🇨🇳 China

打ち上げ Aug 6, 2024 から Taiyuan Satellite Launch Center

Loading…

次のパス (今後24時間)

TLE

最新Source: Space-Track

元期: Sep 13, 2026, 17:51 UTC

1 61810U 24140ACA 26256.74404971  .00002181  00000-0  74774-3 0  9998
2 61810  88.9872 263.6142 0187034 166.5294 194.0995 14.26454308105246

AllMySatでCZ-6A DEBをリアルタイム追跡

Download on the App Store